Location: Unspecified
(18.5042°N, 0.0000°E)
Time: 13:19:59
(UTC+00:00)

Centaur D-1AR AC-37 - Pass Details

Date: 29 December 1899
Orbit: 663 x 36414 km, 21.4° (Epoch: 28 March)

Event Time Altitude Azimuth Distance (km) Brightness Sun altitude
Rises 13:31:02 0° 281° (W) 4,934 8.9 41.1°
Reaches altitude 10° 13:32:53 10° 280° (W) 4,483 8.8 40.8°
Maximum altitude 13:47:05 79° 195° (SSW) 5,375 9.7 38.9°
Drops below altitude 10° 23:59:23 10° 127° (SE) 7,986 9.7 -84.4°
Sets 00:03:57 0° 117° (ESE) 7,637 9.7 -83.8°
